Regional Weather Roundup
Issued by NWS Midland/Odessa, TX

Skip options and go directly to product.
Home | Oldest Version | Previous Version | Current Version | All | Text Only | Save Text | Print | Product List | Glossary On

Skip product version selection by date and time.   
895
ASUS44 KMAF 280010
RWRMAF
MIDLAND AREA WEATHER ROUNDUP
NATIONAL WEATHER SERVICE MIDLAND TX
700 PM CDT FRI MAR 27 2015

...IN SOUTHWEST TEXAS AND SOUTHEAST NEW MEXICO...

CITY           SKY/WX    TMP DP  RH WIND       PRES   REMARKS
ALPINE         SUNNY     73  22  14 SW15      30.23S
ANDREWS        FAIR      77  28  16 SW12      30.08F
ARTESIA        SUNNY     79  27  14 S13       30.06F
BIG SPRING     SUNNY     79  26  14 S13       30.10F
CARLSBAD       SUNNY     80  27  14 SE9       30.05F
DRYDEN           N/A     81  25  12 S9        30.08F
FORT STOCKTON  SUNNY     79  23  12 CALM      30.09F
GUAD PASS      SUNNY     72  23  16 W18       30.19F
HOBBS          SUNNY     75  19  12 W7        30.09S
MARFA          SUNNY     72  21  15 SW8       30.22F
MIDLAND AIRPK  SUNNY     77  28  16 S10       30.09S
MIDLAND INTL   SUNNY     77  29  17 S13       30.08F
ODESSA         SUNNY     77  27  15 S10       30.09F
PECOS          SUNNY     81  28  14 SW9       30.05F
PRESIDIO       FAIR      78  23  13 CALM      30.12S
SEMINOLE       SUNNY     77  26  14 W8        30.08F
SNYDER         SUNNY     78  33  19 S6        30.07S
WINK           SUNNY     80  23  12 SW13      30.05F
$$
...OTHER STATIONS IN TEXAS...

CITY           SKY/WX    TMP DP  RH WIND       PRES   REMARKS
ABILENE        SUNNY     74  30  19 E5        30.09F
AMARILLO       SUNNY     71  27  19 S6        30.10S
AUSTIN         CLEAR     77  37  23 NW6       30.08S
BROWNSVILLE    CLEAR     73  40  30 NE6       30.15R
CORPUS CHRISTI PTCLDY    77  46  33 S7        30.13R
DALLAS FTW     MOCLDY    64  42  44 NE10      30.11S
DEL RIO        SUNNY     79  33  19 SE12      30.08S
EL PASO        SUNNY     79  17  10 W10       30.11F
HOUSTON INT    PTCLDY    76  38  25 W10G17    30.07R
LUBBOCK        MOSUNNY   74  31  20 E15       30.07F
SAN ANGELO     SUNNY     77  31  18 SW9       30.08F
SAN ANTONIO    CLEAR     76  33  21 SW14      30.11S
WACO           CLEAR     69  44  40 NE9       30.11R
WICHITA FALLS  NOT AVBL
$$
...OTHER LOCATIONS IN NEW MEXICO...

CITY           SKY/WX    TMP DP  RH WIND       PRES   REMARKS
ALAMAGORDO     MOSUNNY   75  16  10 N9        30.13S
ALBUQUERQUE    MOSUNNY   76  15  10 NW16      30.13F
CANNON AFB     SUNNY     74  27  17 SE7       30.09F
CLOVIS         SUNNY     72  28  20 S8        30.09F
HOLLOMAN AFB   MOSUNNY   76  16  10 CALM      30.10F
ROSWELL        SUNNY     79  23  12 SE15      30.06F
RUIDOSO        SUNNY     64  14  14 NW8G24    30.26S
SANTA FE       SUNNY     71  14  11 W16G28    30.13F
TRUTH OR CONSE SUNNY     76  17  11 S13       30.11F
TUCUMCARI      SUNNY     76  21  12 S9        30.05F
$$

USA.gov is the U.S. government's official web portal to all federal, state and local government web resources and services.